Back to catalog

STARLINK-2589

AliveCommunicationsVLEO
NORAD 48371·PAYLOAD·🇺🇸 United States

Launched May 4, 2021 from Cape Canaveral Space Force Station

Loading…

Next Passes (next 24 hours)

TLE

FreshSource: CelesTrak SupGP

Epoch: Sep 14, 2026, 12:40 UTC

1 48371C 21038U   26257.52826389 -.00016197  00000+0 -52115-3 0  2571
2 48371  53.1579 189.0862 0001346  92.2759 337.0305 15.31691964    14

Track STARLINK-2589 in real time with AllMySat

Download on the App Store